Regional Weather Roundup
Issued by NWS

Home | Current Version | Previous Version | Graphics & Text | Print | Product List | Glossary On
Versions: 1 2 3 4 5 6 7 8 9 10 11 12 13 14 15 16 17 18 19 20 21 22 23 24 25 26 27 28 29 30 31 32 33 34 35 36 37 38 39 40 41 42 43 44 45 46 47 48 49 50
126
ASUS45 KABQ 250210
RWRNM
NEW MEXICO REGIONAL WEATHER ROUNDUP
NATIONAL WEATHER SERVICE ALBUQUERQUE NM
700 PM MST FRI FEB 24 2017

NOTE: "FAIR" MEANS FEW OR NO CLOUDS BELOW 12,000 FEET AGL WITH NO
       SIGNIFICANT WEATHER OR OBSTRUCTIONS TO VISION.

      THIS PRODUCT IS RELEASED AS TWO VERSIONS.  ONE VERSION NEAR
      THE TOP OF THE HOUR CONTAINING PRELIMINARY DATA FROM ALBUQUERQUE
      AND OTHER STATIONS.  A FINAL VERSION WITH ADDITIONAL DATA IS
      ISSUED ABOUT 10 MINUTES AFTER THE HOUR.

NMZ501-503-504-510>518-250300-
NORTHWEST PLATEAU/NORTHCENTRAL MOUNTAINS

CITY           SKY/WX    TMP DP  RH WIND       PRES   REMARKS
FARMINGTON     FAIR      31   1  28 NW12      30.01R WCI  22
LOS ALAMOS     FAIR      31  -3  23 SW5       29.98R WCI  26
SANTA FE       FAIR      33  -8  17 W14       29.97R WCI  23
TAOS           FAIR      23  -2  33 NW8       29.95R WCI  14
ANGEL FIRE     FAIR      21   1  41 SW3       29.93R

$$
NMZ402-403-502-505>509-250300-
WESTCENTRAL MOUNTAINS/SOUTHWEST MOUNTAINS

CITY           SKY/WX    TMP DP  RH WIND       PRES   REMARKS
GALLUP         FAIR      32   1  26 W12       30.02R WCI  23
GRANTS         FAIR      29  -1  27 NW6G16    30.03R WCI  23
SILVER CITY    FAIR      40  10  28 NW6       30.06R

$$
NMZ407-409-411-412-250300-
SOUTHERN DESERTS

CITY           SKY/WX    TMP DP  RH WIND       PRES   REMARKS
DEMING         FAIR      50  12  21 NW9       30.04R
LAS CRUCES     FAIR      49   7  18 W10       30.03R
HOLLOMAN AFB   FAIR      51   6  16 SW8       30.01R
ALAMOGORDO     FAIR      48   5  17 SW9       29.99R
T OR C         FAIR      50   7  17 W14       29.96R

$$
NMZ519>523-250300-
CENTRAL VALLEYS/CENTRAL HIGHLANDS

CITY           SKY/WX    TMP DP  RH WIND       PRES   REMARKS
ALBUQUERQUE    FAIR      41  -1  17 W12       29.99R
DOUBLE EAGLE   CLEAR     32   0  25 SW9       30.00R WCI  24
MORIARTY ARPT  FAIR      35   0  23 W10       29.99R WCI  27
CLINES CORNERS FAIR      27  -1  30 W12       29.97R WCI  17
BELEN          FAIR      38  -3  17 W8        30.01R WCI  32
SOCORRO        FAIR      46  -1  14 NW17      29.96R

$$
NMZ524>526-539-540-250300-
SOUTHCENTRAL MOUNTAINS

CITY           SKY/WX    TMP DP  RH WIND       PRES   REMARKS
RUIDOSO        FAIR      37   0  20 W10       30.00R WCI  30

$$
NMZ527>531-250300-
NORTHEAST HIGHLANDS/NORTHEAST PLAINS

CITY           SKY/WX    TMP DP  RH WIND       PRES   REMARKS
LAS VEGAS      FAIR      28  -9  19 SW3       29.94R
RATON          FAIR      25  10  53 NE12      29.94R WCI  14
CLAYTON        FAIR      24  12  60 NE9       29.99R WCI  14

$$
NMZ532>537-250300-
EASTCENTRAL PLAINS

CITY           SKY/WX    TMP DP  RH WIND       PRES   REMARKS
TUCUMCARI      FAIR      39  13  34 E15       29.97R WCI  31
CANNON AFB     NOT AVBL
CLOVIS AIRPORT FAIR      36   5  27 N7        29.96R WCI  30

$$
NMZ028-029-538-250300-
SOUTHEAST PLAINS

CITY           SKY/WX    TMP DP  RH WIND       PRES   REMARKS
ROSWELL        FAIR      54   2  12 NW3         N/A
ARTESIA        FAIR      52   5  15 SW13      29.94R
CARLSBAD       FAIR      57  -1   9 W15       29.93R
HOBBS          FAIR      46   5  18 N6        29.95R


$$




USA.gov is the U.S. government's official web portal to all federal, state and local government web resources and services.